Location: Newark
(46.7000°N, 60.6000°W)
Time: 11:59:50
(UTC+00:00)

A-11 Canister half - Pass Details

Date: 06 November 2020
Orbit: 1516 x 1684 km, 47.2° (Epoch: 04 December)

Event Time Altitude Azimuth Distance (km) Brightness Sun altitude
Rises 23:07:44 0° 251° (WSW) 4,930 12.7 -25.7°
Reaches altitude 10° 23:10:54 10° 251° (WSW) 3,945 12.0 -26.3°
Maximum altitude 23:21:06 85° 165° (SSE) 1,684 9.0 -28.0°
Enters shadow 23:24:19 51° 82° (E) 2,027 9.1 -28.6°
